Fort Sill, OK

1:25 PM CDT on April 27, 2017 (GMT -0500)
Post Army Air Field

Weather History for KFSI - September, 2013

Change the Weather History Date:

Friday, September 27, 2013

  Actual Average Record
Temperature  
Mean Temperature 78 °F -  
Max Temperature 90 °F 82 °F 103 °F (1953)
Min Temperature 66 °F 57 °F 43 °F (1975)
Cooling Degree Days 13    
Growing Degree Days 28 (Base 50)    
Moisture  
Dew Point 63 °F    
Average Humidity 60    
Maximum Humidity 79    
Minimum Humidity 43    
Precipitation  
Precipitation 0.00 in - - ()
Sea Level Pressure  
Sea Level Pressure 29.82 in    
Wind  
Wind Speed 12 mph (SSE)    
Max Wind Speed 23 mph    
Max Gust Speed 29 mph    
Visibility 10 miles    
Events      
Averages and records for this station are not official NWS values.
T = Trace of Precipitation, MM = Missing Value Source: NWS Daily Summary

Daily Weather History Graph

Daily Weather History Graph

Search for Another Location

Airport or City:

Trip Planner

Search our weather history database for the weather conditions in past years. The results will help you decide how hot, cold, wet, or windy it might be!

Date:

Astronomy

Sep. 27, 2013 Rise Set
Actual Time 7:25 AM CDT 7:22 PM CDT
Civil Twilight 7:00 AM CDT 7:47 PM CDT
Nautical Twilight 6:31 AM CDT 8:17 PM CDT
Astronomical Twilight 6:01 AM CDT 8:46 PM CDT
Moon 12:35 AM CDT 2:49 PM CDT
Length of Visible Light 12h 47m
Length of Day
11h 57m
Last Quarter, 45% of the Moon is Illuminated
Sep 27
Last Quarter
Oct 4
New
Oct 11
First Quarter
Oct 18
Full
Oct 26
Last Quarter

Hourly Weather History & Observations

Time (CDT) Temp. Heat Index Dew Point Humidity Pressure Visibility Wind Dir Wind Speed Gust Speed Precip Events Conditions
12:58 AM 73.2 °F - 52.9 °F 49% 29.83 in 10.0 mi South 10.4 mph - N/A   Clear
1:58 AM 71.4 °F - 53.1 °F 52% 29.84 in 10.0 mi SSE 9.2 mph - N/A   Clear
2:58 AM 69.1 °F - 53.6 °F 58% 29.84 in 10.0 mi SSE 8.1 mph - N/A   Clear
3:58 AM 67.8 °F - 54.7 °F 63% 29.83 in 10.0 mi SSE 9.2 mph - N/A   Clear
4:58 AM 67.8 °F - 55.6 °F 65% 29.83 in 10.0 mi SSE 10.4 mph - N/A   Clear
5:58 AM 67.1 °F - 56.5 °F 69% 29.85 in 10.0 mi SSE 8.1 mph - N/A   Clear
6:58 AM 66.2 °F - 57.9 °F 75% 29.86 in 10.0 mi SSE 8.1 mph - N/A   Clear
7:58 AM 66.0 °F - 59.4 °F 79% 29.87 in 10.0 mi SSE 5.8 mph - N/A   Clear
8:58 AM 71.6 °F - 62.6 °F 73% 29.88 in 10.0 mi SSE 10.4 mph - N/A   Clear
9:58 AM 77.5 °F - 67.1 °F 70% 29.88 in 10.0 mi South 11.5 mph - N/A   Clear
10:58 AM 82.4 °F 85.4 °F 68.4 °F 62% 29.87 in 10.0 mi South 15.0 mph 21.9 mph N/A   Partly Cloudy
11:58 AM 85.3 °F 88.5 °F 67.8 °F 56% 29.86 in 10.0 mi SSE 18.4 mph - N/A   Partly Cloudy
12:58 PM 85.1 °F 87.7 °F 66.9 °F 54% 29.83 in 10.0 mi South 18.4 mph 27.6 mph N/A   Overcast
1:58 PM 88.5 °F 90.8 °F 66.2 °F 47% 29.80 in 10.0 mi SSE 23.0 mph 28.8 mph N/A   Mostly Cloudy
2:58 PM 89.2 °F 91.3 °F 65.1 °F 45% 29.78 in 10.0 mi SSE 20.7 mph 27.6 mph N/A   Mostly Cloudy
3:58 PM 90.5 °F 92.5 °F 65.5 °F 43% 29.76 in 10.0 mi South 19.6 mph 26.5 mph N/A   Partly Cloudy
4:58 PM 87.8 °F 89.7 °F 65.5 °F 47% 29.76 in 10.0 mi SSE 19.6 mph 28.8 mph N/A   Scattered Clouds
5:58 PM 87.1 °F 89.5 °F 66.2 °F 50% 29.77 in 10.0 mi SSE 17.3 mph 23.0 mph N/A   Mostly Cloudy
6:58 PM 85.5 °F 87.9 °F 66.7 °F 53% 29.76 in 10.0 mi SSE 16.1 mph 23.0 mph N/A   Mostly Cloudy
7:58 PM 84.4 °F 86.8 °F 66.7 °F 55% 29.76 in 10.0 mi SSE 16.1 mph - N/A   Mostly Cloudy
8:58 PM 82.2 °F 85.5 °F 68.7 °F 64% 29.78 in 10.0 mi SSE 17.3 mph 24.2 mph N/A   Overcast
9:58 PM 81.0 °F 84.1 °F 69.1 °F 67% 29.80 in 10.0 mi SSE 16.1 mph - N/A   Overcast
10:58 PM 79.3 °F - 68.9 °F 70% 29.80 in 10.0 mi SSE 16.1 mph - N/A   Scattered Clouds
11:58 PM 77.7 °F - 68.9 °F 74% 29.80 in 10.0 mi SSE 12.7 mph - N/A   Scattered Clouds